Weather History for Bar Harbor, ME

Change the Weather History Date:

Wednesday, November 21, 2012

  Actual Average Record
Temperature  
Mean Temperature 38 °F -  
Max Temperature 48 °F 42 °F 67 °F (1953)
Min Temperature 28 °F 29 °F 16 °F (1959)
Degree Days  
Heating Degree Days 27    
Moisture  
Dew Point 34 °F    
Average Humidity 89    
Maximum Humidity 100    
Minimum Humidity 62    
Precipitation  
Precipitation 0.00 in - - ()
Sea Level Pressure  
Sea Level Pressure 30.25 in    
Wind  
Wind Speed 2 mph (North)    
Max Wind Speed 8 mph    
Max Gust Speed -    
Visibility 9 miles    
Events      
Averages and records for this station are not official NWS values.
T = Trace of Precipitation, MM = Missing Value Source: NWS Daily Summary

Daily Weather History Graph

Daily Weather History Graph

Search for Another Location

Airport:

Trip Planner

Search our weather history database for the weather conditions in past years. The results will help you decide how hot, cold, wet, or windy it might be!

Date:

Astronomy

Nov. 21, 2012 Rise Set
Actual Time 6:38 AM EST 4:00 PM EST
Civil Twilight 6:06 AM EST 4:32 PM EST
Nautical Twilight 5:30 AM EST 5:08 PM EST
Astronomical Twilight 4:55 AM EST 5:42 PM EST
Moon 12:28 PM EST (11/21) No Moon Set
Length of Visible Light 10h 26m
Length of Day
9h 22m
First Quarter, 61% of the Moon is Illuminated
Nov 21
First Quarter
Nov 28
Full
Dec 6
Last Quarter
Dec 13
New
Dec 20
First Quarter

Hourly Weather History & Observations

Time (EST) Temp. Windchill Dew Point Humidity Pressure Visibility Wind Dir Wind Speed Gust Speed Precip Events Conditions
12:35 AM 33.8 °F 30.8 °F 28.4 °F 81% 30.19 in 10.0 mi NNW 3.5 mph - N/A   Clear
12:55 AM 32.0 °F - 28.4 °F 87% 30.20 in 10.0 mi Calm Calm - N/A   Clear
1:15 AM 33.8 °F - 28.4 °F 81% 30.20 in 10.0 mi Calm Calm - N/A   Clear
1:35 AM 32.0 °F - 28.4 °F 87% 30.20 in 10.0 mi Calm Calm - N/A   Clear
1:55 AM 32.0 °F 28.7 °F 28.4 °F 87% 30.21 in 10.0 mi NNW 3.5 mph - N/A   Clear
2:15 AM 32.0 °F - 28.4 °F 87% 30.21 in 10.0 mi Calm Calm - N/A   Mostly Cloudy
2:35 AM 32.0 °F - 28.4 °F 87% 30.21 in 10.0 mi Calm Calm - N/A   Scattered Clouds
2:55 AM 32.0 °F 28.7 °F 30.2 °F 93% 30.21 in 10.0 mi NNW 3.5 mph - N/A   Mostly Cloudy
3:15 AM 32.0 °F 28.7 °F 30.2 °F 93% 30.21 in 10.0 mi NNW 3.5 mph - N/A   Partly Cloudy
3:35 AM 32.0 °F - 30.2 °F 93% 30.21 in 9.0 mi Calm Calm - N/A   Clear
3:55 AM 32.0 °F - 30.2 °F 93% 30.21 in 10.0 mi Calm Calm - N/A   Clear
4:15 AM 32.0 °F 28.7 °F 30.2 °F 93% 30.22 in 10.0 mi WNW 3.5 mph - N/A   Clear
4:35 AM 32.0 °F 27.5 °F 30.2 °F 93% 30.22 in 10.0 mi NW 4.6 mph - N/A   Clear
4:55 AM 32.0 °F - 32.0 °F 100% 30.23 in 10.0 mi Calm Calm - N/A   Scattered Clouds
5:15 AM 33.8 °F 30.8 °F 32.0 °F 93% 30.23 in 9.0 mi NNW 3.5 mph - N/A   Mostly Cloudy
5:55 AM 33.8 °F - 33.8 °F 100% 30.24 in 6.0 mi Calm Calm - N/A   Overcast
6:15 AM 33.8 °F 28.6 °F 33.8 °F 100% 30.25 in 6.0 mi NNW 5.8 mph - N/A   Overcast
6:35 AM 35.6 °F 32.8 °F 33.8 °F 93% 30.26 in 6.0 mi NNW 3.5 mph - N/A   Overcast
7:15 AM 33.8 °F 28.6 °F 32.0 °F 93% 30.27 in 6.0 mi North 5.8 mph - N/A   Overcast
7:35 AM 35.6 °F - 35.6 °F 100% 30.28 in 5.0 mi Calm Calm - N/A   Overcast
7:55 AM 35.6 °F 32.8 °F 35.6 °F 100% 30.28 in 5.0 mi NNW 3.5 mph - N/A   Overcast
8:15 AM 37.4 °F 32.8 °F 35.6 °F 93% 30.28 in 5.0 mi North 5.8 mph - N/A   Overcast
8:35 AM 37.4 °F 32.1 °F 37.4 °F 100% 30.28 in 7.0 mi North 6.9 mph - N/A   Overcast
8:55 AM 37.4 °F 31.4 °F 37.4 °F 100% 30.28 in 8.0 mi North 8.1 mph - N/A   Overcast
9:15 AM 37.4 °F 32.1 °F 37.4 °F 100% 30.28 in 8.0 mi North 6.9 mph - N/A   Overcast
9:35 AM 39.2 °F 35.0 °F 37.4 °F 93% 30.29 in 8.0 mi North 5.8 mph - N/A   Overcast
9:55 AM 39.2 °F 34.2 °F 37.4 °F 93% 30.28 in 9.0 mi North 6.9 mph - N/A   Overcast
10:15 AM 39.2 °F 35.0 °F 37.4 °F 93% 30.28 in 10.0 mi North 5.8 mph - N/A   Scattered Clouds
10:35 AM 41.0 °F 35.8 °F 39.2 °F 93% 30.27 in 10.0 mi North 8.1 mph - N/A   Clear
10:55 AM 42.8 °F 39.3 °F 39.2 °F 87% 30.27 in 10.0 mi NNE 5.8 mph - N/A   Clear
11:15 AM 44.6 °F 43.1 °F 39.2 °F 81% 30.27 in 10.0 mi North 3.5 mph - N/A   Clear
11:35 AM 44.6 °F 43.1 °F 39.2 °F 81% 30.26 in 10.0 mi North 3.5 mph - N/A   Clear
11:55 AM 44.6 °F - 39.2 °F 81% 30.25 in 10.0 mi Calm Calm - N/A   Clear
12:15 PM 46.4 °F - 39.2 °F 76% 30.25 in 10.0 mi Calm Calm - N/A   Clear
12:35 PM 46.4 °F 45.2 °F 39.2 °F 76% 30.25 in 10.0 mi ESE 3.5 mph - N/A   Clear
12:55 PM 46.4 °F 44.3 °F 37.4 °F 71% 30.24 in 10.0 mi East 4.6 mph - N/A   Clear
1:15 PM 48.2 °F - 37.4 °F 66% 30.25 in 10.0 mi East 4.6 mph - N/A   Clear
1:35 PM 48.2 °F - 35.6 °F 62% 30.24 in 10.0 mi ESE 5.8 mph - N/A   Clear
1:55 PM 48.2 °F - 35.6 °F 62% 30.25 in 10.0 mi East 6.9 mph - N/A   Clear
2:15 PM 48.2 °F - 35.6 °F 62% 30.25 in 10.0 mi ESE 6.9 mph - N/A   Clear
2:35 PM 48.2 °F - 35.6 °F 62% 30.25 in 10.0 mi East 5.8 mph - N/A   Clear
2:55 PM 46.4 °F 44.3 °F 35.6 °F 66% 30.25 in 10.0 mi East 4.6 mph - N/A   Clear
3:15 PM 46.4 °F - 35.6 °F 66% 30.26 in 10.0 mi Calm Calm - N/A   Clear
3:35 PM 46.4 °F - 37.4 °F 71% 30.26 in 10.0 mi Calm Calm - N/A   Clear
3:55 PM 44.6 °F - 37.4 °F 76% 30.25 in 10.0 mi Calm Calm - N/A   Clear
4:15 PM 42.8 °F - 37.4 °F 81% 30.25 in 10.0 mi Calm Calm - N/A   Clear
4:35 PM 41.0 °F - 35.6 °F 81% 30.25 in 10.0 mi Calm Calm - N/A   Clear
4:55 PM 37.4 °F - 35.6 °F 93% 30.26 in 10.0 mi Calm Calm - N/A   Clear
5:15 PM 37.4 °F - 35.6 °F 93% 30.27 in 10.0 mi Calm Calm - N/A   Clear
5:35 PM 35.6 °F - 35.6 °F 100% 30.26 in 10.0 mi Calm Calm - N/A   Clear
5:55 PM 35.6 °F 32.8 °F 35.6 °F 100% 30.27 in 10.0 mi North 3.5 mph - N/A   Clear
6:35 PM 37.4 °F 33.8 °F 35.6 °F 93% 30.28 in 10.0 mi NNW 4.6 mph - N/A   Partly Cloudy
6:55 PM 35.6 °F - 35.6 °F 100% 30.28 in 10.0 mi Calm Calm - N/A   Mostly Cloudy
7:15 PM 37.4 °F 33.8 °F 35.6 °F 93% 30.28 in 10.0 mi NNW 4.6 mph - N/A   Partly Cloudy
7:35 PM 35.6 °F - 33.8 °F 93% 30.28 in 10.0 mi Calm Calm - N/A   Clear
7:55 PM 33.8 °F - 32.0 °F 93% 30.28 in 10.0 mi Calm Calm - N/A   Clear
8:15 PM 33.8 °F - 33.8 °F 100% 30.28 in 10.0 mi Calm Calm - N/A   Clear
8:35 PM 32.0 °F - 30.2 °F 93% 30.28 in 9.0 mi Calm Calm - N/A   Clear
8:55 PM 32.0 °F - 32.0 °F 100% 30.27 in 8.0 mi Calm Calm - N/A   Clear
9:15 PM 32.0 °F - 30.2 °F 93% 30.28 in 7.0 mi Calm Calm - N/A   Clear
9:35 PM 30.2 °F - 30.2 °F 100% 30.27 in 5.0 mi Calm Calm - N/A   Clear
9:55 PM 30.2 °F - 30.2 °F 100% 30.27 in 6.0 mi Calm Calm - N/A   Clear
10:15 PM 30.2 °F - 30.2 °F 100% 30.27 in 5.0 mi Calm Calm - N/A   Clear
10:35 PM 30.2 °F 26.7 °F 28.4 °F 93% 30.27 in 5.0 mi NNW 3.5 mph - N/A   Clear
10:55 PM 30.2 °F 26.7 °F 28.4 °F 93% 30.26 in 5.0 mi NNW 3.5 mph - N/A   Clear
11:15 PM 28.4 °F - 26.6 °F 93% 30.27 in 6.0 mi Calm Calm - N/A   Clear
11:35 PM 28.4 °F - 28.4 °F 100% 30.27 in 7.0 mi Calm Calm - N/A   Clear
11:55 PM 28.4 °F - 28.4 °F 100% 30.26 in 5.0 mi Calm Calm - N/A   Clear